TimeCDT,TemperatureF,Dew PointF,Humidity,Sea Level PressureIn,VisibilityMPH,Wind Direction,Wind SpeedMPH,Gust SpeedMPH,PrecipitationIn,Events,Conditions,WindDirDegrees,DateUTC
12:15 AM,27.3,20.3,75,30.28,10.0,NNW,8.1,-,N/A,,Clear,330,2013-04-02 05:15:00
12:35 AM,27.5,20.1,74,30.28,10.0,NNW,9.2,-,N/A,,Clear,330,2013-04-02 05:35:00
12:55 AM,26.6,19.4,74,30.28,10.0,NNW,8.1,-,N/A,,Clear,330,2013-04-02 05:55:00
1:15 AM,26.1,20.1,78,30.29,10.0,NNW,8.1,-,N/A,,Clear,330,2013-04-02 06:15:00
1:35 AM,26.1,19.8,77,30.29,10.0,NW,6.9,-,N/A,,Clear,320,2013-04-02 06:35:00
1:55 AM,23.9,18.9,81,30.30,10.0,NW,6.9,-,N/A,,Clear,320,2013-04-02 06:55:00
2:15 AM,22.5,18.1,83,30.30,10.0,NW,4.6,-,N/A,,Clear,320,2013-04-02 07:15:00
2:35 AM,23.7,19.2,83,30.30,10.0,NW,6.9,-,N/A,,Clear,320,2013-04-02 07:35:00
2:55 AM,24.8,19.4,80,30.30,10.0,NW,5.8,-,N/A,,Clear,320,2013-04-02 07:55:00
3:15 AM,22.1,17.6,83,30.30,10.0,NW,5.8,-,N/A,,Clear,320,2013-04-02 08:15:00
3:35 AM,21.4,17.4,85,30.30,10.0,WNW,5.8,-,N/A,,Clear,300,2013-04-02 08:35:00
3:55 AM,21.0,17.6,87,30.30,10.0,WNW,5.8,-,N/A,,Clear,300,2013-04-02 08:55:00
4:15 AM,20.3,17.4,89,30.30,10.0,NW,5.8,-,N/A,,Clear,320,2013-04-02 09:15:00
4:35 AM,22.6,18.5,84,30.30,10.0,NNW,5.8,-,N/A,,Clear,330,2013-04-02 09:35:00
4:55 AM,21.9,18.1,85,30.30,10.0,NW,4.6,-,N/A,,Clear,320,2013-04-02 09:55:00
5:15 AM,21.7,17.6,84,30.30,10.0,NW,4.6,-,N/A,,Clear,320,2013-04-02 10:15:00
5:35 AM,22.5,18.3,84,30.30,10.0,NW,6.9,-,N/A,,Clear,320,2013-04-02 10:35:00
5:55 AM,22.8,18.5,83,30.31,10.0,NNW,5.8,-,N/A,,Clear,330,2013-04-02 10:55:00
6:15 AM,22.8,18.3,83,30.31,10.0,NW,5.8,-,N/A,,Clear,320,2013-04-02 11:15:00
6:35 AM,19.8,16.3,87,30.32,10.0,NW,6.9,-,N/A,,Clear,310,2013-04-02 11:35:00
6:55 AM,20.3,17.1,87,30.32,10.0,NW,5.8,-,N/A,,Clear,320,2013-04-02 11:55:00
7:15 AM,21.4,17.8,86,30.33,10.0,NW,5.8,-,N/A,,Clear,310,2013-04-02 12:15:00
7:35 AM,24.3,20.3,85,30.34,10.0,WNW,4.6,-,N/A,,Clear,300,2013-04-02 12:35:00
7:55 AM,26.6,23.0,86,30.34,10.0,NW,4.6,-,N/A,,Clear,310,2013-04-02 12:55:00
8:15 AM,29.3,22.3,75,30.35,10.0,NW,5.8,-,N/A,,Clear,310,2013-04-02 13:15:00
8:35 AM,30.4,22.6,73,30.35,10.0,North,6.9,-,N/A,,Clear,350,2013-04-02 13:35:00
8:55 AM,32.0,22.6,68,30.35,10.0,NNW,5.8,-,N/A,,Clear,340,2013-04-02 13:55:00
9:35 AM,33.3,19.8,58,30.36,10.0,NNW,3.5,-,N/A,,Clear,340,2013-04-02 14:35:00
9:55 AM,33.8,17.6,52,30.36,10.0,Calm,Calm,-,N/A,,Clear,0,2013-04-02 14:55:00
10:15 AM,34.3,17.2,50,30.36,10.0,West,3.5,-,N/A,,Clear,270,2013-04-02 15:15:00
10:35 AM,35.6,17.6,48,30.36,10.0,NW,5.8,-,N/A,,Clear,310,2013-04-02 15:35:00
10:55 AM,37.2,16.3,43,30.36,10.0,WNW,5.8,-,N/A,,Clear,290,2013-04-02 15:55:00
11:15 AM,37.6,15.3,40,30.35,10.0,West,6.9,-,N/A,,Clear,270,2013-04-02 16:15:00
11:35 AM,38.7,12.2,34,30.35,10.0,NNW,4.6,-,N/A,,Clear,340,2013-04-02 16:35:00
11:55 AM,39.2,12.2,33,30.35,10.0,WNW,6.9,-,N/A,,Clear,290,2013-04-02 16:55:00
12:15 PM,40.3,10.9,30,30.34,10.0,NW,10.4,-,N/A,,Clear,320,2013-04-02 17:15:00
12:35 PM,40.8,10.6,29,30.33,10.0,NW,5.8,-,N/A,,Clear,310,2013-04-02 17:35:00
12:55 PM,42.8,12.2,29,30.33,10.0,NNW,11.5,-,N/A,,Clear,330,2013-04-02 17:55:00
1:15 PM,42.6,9.9,26,30.32,10.0,NNW,11.5,17.3,N/A,,Clear,330,2013-04-02 18:15:00
1:35 PM,42.6,10.0,26,30.31,10.0,NW,10.4,17.3,N/A,,Clear,310,2013-04-02 18:35:00
1:55 PM,42.8,10.4,27,30.31,10.0,West,10.4,16.1,N/A,,Clear,280,2013-04-02 18:55:00
2:15 PM,44.6,9.5,24,30.30,10.0,West,11.5,17.3,N/A,,Clear,260,2013-04-02 19:15:00
2:35 PM,44.1,9.3,24,30.30,10.0,WNW,11.5,20.7,N/A,,Clear,300,2013-04-02 19:35:00
2:55 PM,44.6,8.6,23,30.29,10.0,WNW,6.9,20.7,N/A,,Clear,290,2013-04-02 19:55:00
3:15 PM,45.3,10.0,24,30.29,10.0,NW,12.7,19.6,N/A,,Clear,320,2013-04-02 20:15:00
3:35 PM,46.0,10.9,24,30.29,10.0,WNW,11.5,19.6,N/A,,Clear,300,2013-04-02 20:35:00
3:55 PM,46.8,10.9,24,30.29,10.0,NW,12.7,18.4,N/A,,Clear,320,2013-04-02 20:55:00
4:15 PM,46.0,11.3,25,30.28,10.0,WNW,13.8,36.8,N/A,,Clear,300,2013-04-02 21:15:00
4:35 PM,46.0,11.5,25,30.28,10.0,NW,8.1,-,N/A,,Clear,310,2013-04-02 21:35:00
4:55 PM,46.4,12.9,26,30.28,10.0,WNW,11.5,18.4,N/A,,Clear,300,2013-04-02 21:55:00
5:15 PM,46.2,13.5,27,30.28,10.0,NNW,13.8,-,N/A,,Clear,330,2013-04-02 22:15:00
5:35 PM,46.6,15.8,29,30.28,10.0,WNW,12.7,-,N/A,,Clear,300,2013-04-02 22:35:00
5:55 PM,45.7,17.4,32,30.28,10.0,NW,15.0,-,N/A,,Clear,320,2013-04-02 22:55:00
6:15 PM,45.0,17.4,33,30.28,10.0,NW,16.1,19.6,N/A,,Clear,320,2013-04-02 23:15:00
6:35 PM,44.1,18.9,37,30.28,10.0,NNW,11.5,-,N/A,,Clear,340,2013-04-02 23:35:00
6:55 PM,42.8,19.4,39,30.29,10.0,NNW,11.5,-,N/A,,Clear,330,2013-04-02 23:55:00
7:15 PM,41.7,20.8,43,30.30,10.0,NNW,9.2,-,N/A,,Clear,340,2013-04-03 00:15:00
7:35 PM,39.2,21.6,49,30.30,10.0,North,5.8,-,N/A,,Clear,350,2013-04-03 00:35:00
7:55 PM,37.0,21.9,54,30.30,10.0,North,8.1,-,N/A,,Clear,350,2013-04-03 00:55:00
8:15 PM,35.2,21.9,58,30.31,10.0,NNW,6.9,-,N/A,,Clear,340,2013-04-03 01:15:00
8:35 PM,35.1,21.9,59,30.31,10.0,North,9.2,-,N/A,,Clear,360,2013-04-03 01:35:00
8:55 PM,35.6,21.9,58,30.32,10.0,North,10.4,-,N/A,,Clear,360,2013-04-03 01:55:00
9:15 PM,34.3,21.9,60,30.33,10.0,North,8.1,-,N/A,,Clear,360,2013-04-03 02:15:00
9:35 PM,33.8,21.2,60,30.33,10.0,North,6.9,-,N/A,,Clear,360,2013-04-03 02:35:00
9:55 PM,32.0,21.9,66,30.34,10.0,North,8.1,-,N/A,,Clear,350,2013-04-03 02:55:00
10:15 PM,31.8,21.6,66,30.34,10.0,North,5.8,-,N/A,,Clear,350,2013-04-03 03:15:00
10:35 PM,30.2,21.2,69,30.35,10.0,North,6.9,-,N/A,,Clear,350,2013-04-03 03:35:00
10:55 PM,28.9,20.8,72,30.35,10.0,North,5.8,-,N/A,,Clear,360,2013-04-03 03:55:00
11:15 PM,27.9,20.7,74,30.35,10.0,North,3.5,-,N/A,,Clear,360,2013-04-03 04:15:00
11:35 PM,28.9,20.8,72,30.35,10.0,North,3.5,-,N/A,,Clear,350,2013-04-03 04:35:00
11:55 PM,28.0,20.3,73,30.35,10.0,North,3.5,-,N/A,,Clear,360,2013-04-03 04:55:00